Satellite: NOAA-17
Catalog number: 27453
Epoch time:      05013.80930185
Element set:     207
Inclination:       98.6796 deg
RA of node:        89.5555 deg
Eccentricity:    0.0012436
Arg of perigee:   140.3947 deg
Mean anomaly:     219.8628 deg
Mean motion:   14.23619474 rev/day
Decay rate:       1.91e-06 rev/day^2
Epoch rev:           13287
Checksum:              326

/EX
SB KEPS @ AMSAT  $ORB05013.M
Orbital Elements  05013.MISC

HR AMSAT ORBITAL ELEMENTS FOR MANNED AND MISCELLANEOUS SATELLITES
FROM WA5QGD FORT WORTH,TX January 13, 2005
SEND SUBSCRIBE/UNSUBSCRIBE TO majordomo@amsat.org ONLY
BID: ORB05013.M
TO ALL RADIO AMATEURS BT

Satellite: HUBBLE
Catalog number: 20580
Epoch time:      05013.52571188
Element set:     247
Inclination:       28.4658 deg
RA of node:       196.3916 deg
Eccentricity:    0.0003211
Arg of perigee:    74.8571 deg
Mean anomaly:     285.2448 deg
Mean motion:   14.99535345 rev/day
Decay rate:       7.43e-06 rev/day^2
Epoch rev:           60700
Checksum:              298

Satellite: UARS
Catalog number: 21701
Epoch time:      05012.84005882
Element set:     351
Inclination:       56.9798 deg
RA of node:        99.7392 deg
Eccentricity:    0.0006432
Arg of perigee:    87.8669 deg
Mean anomaly:     272.3104 deg
Mean motion:   15.03728804 rev/day
Decay rate:      -4.71e-06 rev/day^2
Epoch rev:           73012
Checksum:              297

Satellite: PO-34
Catalog number: 25520
Epoch time:      05012.10876219
Element set:      90
Inclination:       28.4615 deg
RA of node:       275.5954 deg
Eccentricity:    0.0005271
Arg of perigee:   330.5736 deg
Mean anomaly:      29.4557 deg
Mean motion:   15.16030853 rev/day
Decay rate:      1.105e-05 rev/day^2
Epoch rev:           34287
Checksum:              281

Satellite: ISS
Catalog number: 25544
Epoch time:      05014.00232007
Element set:     582
Inclination:       51.6401 deg
RA of node:       329.1953 deg
Eccentricity:    0.0003289
Arg of perigee:   194.7664 deg
Mean anomaly:     251.2861 deg
Mean motion:   15.72786987 rev/day
Decay rate:     2.3298e-04 rev/day^2
Epoch rev:           35144
Checksum:              300

Satellite: OO-38
Catalog number: 26063
Epoch time:      05013.55487325
Element set:     259
Inclination:      100.2228 deg
RA of node:       205.1516 deg
Eccentricity:    0.0037174
Arg of perigee:   129.9692 deg
Mean anomaly:     230.4761 deg
Mean motion:   14.35695193 rev/day
Decay rate:       -7.0e-07 rev/day^2
Epoch rev:           26010
Checksum:              284

Satellite: NO-45
Catalog number: 26932
Epoch time:      05013.31190799
Element set:     937
Inclination:       67.0598 deg
RA of node:       266.3194 deg
Eccentricity:    0.0008507
Arg of perigee:   276.8067 deg
Mean anomaly:      83.2066 deg
Mean motion:   14.29465013 rev/day
Decay rate:       -3.3e-07 rev/day^2
Epoch rev:           17166
Checksum:              319

/EX




----
Via the keps mailing list at AMSAT.ORG courtesy of AMSAT-NA.
To unsubscribe, send "unsubscribe keps" to Majordomo@amsat.org

--- ViaMAIL!/WC v1.60d
 * Origin: Chowdanet (401-331-0615) telnet://chowdanet.com  (1:323/120)